Regional Weather Roundup
Issued by NWS

Home | Current Version | Previous Version | Graphics & Text | Print | Product List | Glossary On
Versions: 1 2 3 4 5 6 7 8 9 10 11 12 13 14 15 16 17 18 19 20 21 22 23 24 25 26 27 28 29 30 31 32 33 34 35 36 37 38 39 40 41 42 43 44 45 46 47 48 49 50
000
ASUS43 KLSX 042207
RWRMO

WEATHER SUMMARY FOR MISSOURI
NATIONAL WEATHER SERVICE SPRINGFIELD MO
500 PM CDT MON MAY 04 2015

NOTE: "FAIR" INDICATES FEW OR NO CLOUDS BELOW 12,000 FEET WITH NO
       SIGNIFICANT WEATHER AND/OR OBSTRUCTIONS TO VISIBILITY.
       CURRENT SKY AND/OR WEATHER CONDITIONS ARE NOT AVAILABLE FOR
       CHILLICOTHE AND FARMINGTON.

MOZ001>031-035>038-043-044-053-054-042300-
...NORTHERN AND WESTERN MISSOURI...

CITY           SKY/WX    TMP DP  RH WIND       PRES   REMARKS
KANSAS CTY INT PTSUNNY   79  61  53 SE12      29.96F
KANSAS C DTWN  PTSUNNY   83  60  45 S12       29.96F
LEE`S SUMMIT   MOSUNNY   82  60  47 S13G23    29.99F
ST JOSEPH      PTSUNNY   78  60  53 E7        29.98F
CHILLICOTHE      N/A     80  61  52 SE8       30.01F
KIRKSVILLE     PTSUNNY   77  63  61 S8        30.04F

$$
MOZ066>068-077>081-088>096-101>105-042300-
...SOUTHWEST MISSOURI...

CITY           SKY/WX    TMP DP  RH WIND       PRES   REMARKS
SPRINGFIELD    CLOUDY    81  58  45 S16       30.07F
JOPLIN         MOSUNNY   81  60  48 S18       30.05F

$$
MOZ032>034-039>042-045>050-055>058-069>072-042300-
...CENTRAL MISSOURI...

CITY           SKY/WX    TMP DP  RH WIND       PRES   REMARKS
COLUMBIA       PTSUNNY   80  61  52 S12       30.04F
JEFFERSON CITY MOSUNNY   84  56  38 S15       30.02F
ROLLA          MOSUNNY   80  59  48 S9        30.06F
SEDALIA        MOSUNNY   82  60  47 S14       30.04F
WHITEMAN AFB   PTSUNNY   81  63  54 S15       30.00F
WARRENSBURG    MOSUNNY   81  59  47 S15       30.00F
OSAGE BEACH    PTSUNNY  N/A N/A N/A S8        30.05F

$$
MOZ051-052-059>065-042300-
...EAST CENTRAL MISSOURI...

CITY           SKY/WX    TMP DP  RH WIND       PRES   REMARKS
ST LOUIS INTL  PTSUNNY   85  57  38 SW9       30.06F
SPIRIT OF STL  PTSUNNY   83  57  41 SW7       30.04F
ST CHARLES     PTSUNNY   84  56  38 S9        30.04F

$$
MOZ072>076-082>087-097>100-106>115-042300-
...SOUTH CENTRAL AND SOUTHEAST MISSOURI...

CITY           SKY/WX    TMP DP  RH WIND       PRES   REMARKS
CAPE GIRARDEAU MOSUNNY   83  54  36 S16G22    30.10F
FARMINGTON     PTSUNNY   82  55  39 S13G20    30.14F
POPLAR BLUFF   SUNNY     83  54  36 S12G18    30.09F
WEST PLAINS    MOSUNNY   80  52  37 S12       30.12F

$$



USA.gov is the U.S. government's official web portal to all federal, state and local government web resources and services.